Volver al catálogo

CZ-4C DEB

ActivoPO
NORAD 43601·DEBRIS·🇨🇳 China

Lanzado Aug 9, 2016 desde Taiyuan Satellite Launch Center

Loading…

Próximos Pases (próximas 24 horas)

TLE

ActualizadoSource: Space-Track

Época: Sep 13, 2026, 08:48 UTC

1 43601U 16049F   26256.36704336  .00011730  00000-0  82060-3 0  9998
2 43601  98.3444  46.2069 0061572 256.1439 103.2930 15.03911264645898

Sigue CZ-4C DEB en tiempo real con AllMySat

Download on the App Store